Estación de Casa Rosada

Ultimos registro cada 15 minutos 32
Estación Fecha / Hora Temperatura Humedad Lluvia Velocidad Dirección Radiación Presion
32 Casa Rosada 03-05-2026 08:00 5,4 45 0 0,9 186 16 1015,3
31 Casa Rosada 03-05-2026 07:45 6,2 42 0 0,9 160 14 1015,3
30 Casa Rosada 03-05-2026 07:30 5,5 44 0 0,4 177 11 1015
29 Casa Rosada 03-05-2026 07:15 5,6 45 0 0,9 200 5 1014,7
28 Casa Rosada 03-05-2026 07:00 5,3 46 0 0,4 158 0 1014,4
27 Casa Rosada 03-05-2026 06:45 5,9 44 0 0,9 167 0 1014,3
26 Casa Rosada 03-05-2026 06:30 5,9 44 0 0,4 177 0 1014
25 Casa Rosada 03-05-2026 06:15 5,7 46 0 0,4 148 0 1013,7
24 Casa Rosada 03-05-2026 06:00 6,2 45 0 1,3 185 0 1013,9
23 Casa Rosada 03-05-2026 05:45 7,1 43 0 0,9 163 0 1013,9
22 Casa Rosada 03-05-2026 05:30 6,4 45 0 0,4 177 0 1013,9
21 Casa Rosada 03-05-2026 05:15 6,6 45 0 1,3 195 0 1013,8
20 Casa Rosada 03-05-2026 05:00 7,2 43 0 0,9 177 0 1013,8
19 Casa Rosada 03-05-2026 04:45 7,3 43 0 0,4 167 0 1013,7
18 Casa Rosada 03-05-2026 04:30 7,2 44 0 0,9 150 0 1013,8
17 Casa Rosada 03-05-2026 04:15 7,2 45 0 1,3 172 0 1013,7
16 Casa Rosada 03-05-2026 03:45 7,1 46 0 0,9 177 0 1013,7
15 Casa Rosada 03-05-2026 03:30 7,2 46 0 0,4 152 0 1013,7
14 Casa Rosada 03-05-2026 03:15 7,4 45 0 0,4 167 0 1013,8
13 Casa Rosada 03-05-2026 03:00 8 43 0 0,9 167 0 1013,9
12 Casa Rosada 03-05-2026 02:45 7,8 44 0 0,9 167 0 1013,8
11 Casa Rosada 03-05-2026 02:30 7,6 45 0 0,9 158 0 1014
10 Casa Rosada 03-05-2026 02:15 8 45 0 0,4 162 0 1013,8
9 Casa Rosada 03-05-2026 02:00 7,7 47 0 0,9 177 0 1013,7
8 Casa Rosada 03-05-2026 01:45 7,6 47 0 1,3 167 0 1013,7
7 Casa Rosada 03-05-2026 01:30 7,6 48 0 0,4 151 0 1013,7
6 Casa Rosada 03-05-2026 01:15 8 48 0 0,9 194 0 1013,8
5 Casa Rosada 03-05-2026 01:00 8,3 46 0 0 177 0 1014
4 Casa Rosada 03-05-2026 00:45 8,7 45 0 0,9 163 0 1013,7
3 Casa Rosada 03-05-2026 00:30 9,2 44 0 0,4 158 0 1013,6
2 Casa Rosada 03-05-2026 00:15 9,1 44 0 0,4 167 0 1013,5
1 Casa Rosada 03-05-2026 00:00 9,9 42 0 0,9 181 0 1013,4